Time,TemperatureF,DewpointF,PressureIn,WindDirection,WindDirectionDegrees,WindSpeedMPH,WindSpeedGustMPH,Humidity,HourlyPrecipIn,Conditions,Clouds,dailyrainin,SoftwareType,DateUTC
2013-06-06 00:21:00,63.6,48.0,29.86,NW,315,2.0,6.0,57,0.00,,,0.00,weatherlink.com 1.10,2013-06-06 07:21:00,
2013-06-06 00:36:00,63.2,48.0,29.86,NW,311,1.0,6.0,59,0.00,,,0.00,weatherlink.com 1.10,2013-06-06 07:36:00,
2013-06-06 00:51:00,63.3,49.0,29.86,NW,311,3.0,6.0,59,0.00,,,0.00,weatherlink.com 1.10,2013-06-06 07:51:00,
2013-06-06 01:07:00,62.8,49.0,29.85,NW,312,0.0,4.0,60,0.00,,,0.00,weatherlink.com 1.10,2013-06-06 08:07:00,
2013-06-06 01:22:00,61.8,49.0,29.85,NW,312,1.0,3.0,63,0.00,,,0.00,weatherlink.com 1.10,2013-06-06 08:22:00,
2013-06-06 01:37:00,61.1,49.0,29.85,NW,312,0.0,4.0,65,0.00,,,0.00,weatherlink.com 1.10,2013-06-06 08:37:00,
2013-06-06 01:52:00,60.6,49.0,29.85,NW,312,0.0,2.0,65,0.00,,,0.00,weatherlink.com 1.10,2013-06-06 08:52:00,
2013-06-06 02:07:00,60.7,48.0,29.85,NW,311,0.0,0.0,64,0.00,,,0.00,weatherlink.com 1.10,2013-06-06 09:07:00,
2013-06-06 02:22:00,60.8,48.0,29.85,NW,312,0.0,0.0,63,0.00,,,0.00,weatherlink.com 1.10,2013-06-06 09:22:00,
2013-06-06 02:37:00,60.9,48.0,29.85,NW,312,0.0,0.0,63,0.00,,,0.00,weatherlink.com 1.10,2013-06-06 09:37:00,
2013-06-06 02:54:00,61.4,49.0,29.85,NW,311,0.0,4.0,63,0.00,,,0.00,weatherlink.com 1.10,2013-06-06 09:54:00,
2013-06-06 03:09:00,57.1,48.0,29.85,NW,311,0.0,0.0,71,0.00,,,0.00,weatherlink.com 1.10,2013-06-06 10:09:00,
2013-06-06 03:24:00,56.6,48.0,29.85,NW,311,0.0,0.0,72,0.00,,,0.00,weatherlink.com 1.10,2013-06-06 10:24:00,
2013-06-06 03:39:00,56.9,48.0,29.85,NW,311,0.0,0.0,72,0.00,,,0.00,weatherlink.com 1.10,2013-06-06 10:39:00,
2013-06-06 03:54:00,55.9,48.0,29.85,NW,311,0.0,0.0,74,0.00,,,0.00,weatherlink.com 1.10,2013-06-06 10:54:00,
2013-06-06 04:09:00,56.1,48.0,29.85,NW,311,0.0,0.0,73,0.00,,,0.00,weatherlink.com 1.10,2013-06-06 11:09:00,
2013-06-06 04:24:00,56.3,47.0,29.86,NW,311,0.0,0.0,72,0.00,,,0.00,weatherlink.com 1.10,2013-06-06 11:24:00,
2013-06-06 04:39:00,55.4,47.0,29.85,NW,311,0.0,0.0,74,0.00,,,0.00,weatherlink.com 1.10,2013-06-06 11:39:00,
2013-06-06 04:54:00,54.9,47.0,29.86,NW,311,0.0,0.0,74,0.00,,,0.00,weatherlink.com 1.10,2013-06-06 11:54:00,
2013-06-06 05:09:00,54.6,47.0,29.86,NW,308,0.0,0.0,75,0.00,,,0.00,weatherlink.com 1.10,2013-06-06 12:09:00,
2013-06-06 05:25:00,55.1,47.0,29.85,WNW,303,0.0,0.0,74,0.00,,,0.00,weatherlink.com 1.10,2013-06-06 12:25:00,
2013-06-06 05:40:00,54.3,47.0,29.86,WNW,303,0.0,0.0,77,0.00,,,0.00,weatherlink.com 1.10,2013-06-06 12:40:00,
2013-06-06 05:55:00,53.4,47.0,29.87,WNW,303,0.0,0.0,80,0.00,,,0.00,weatherlink.com 1.10,2013-06-06 12:55:00,
2013-06-06 06:10:00,53.2,48.0,29.87,WNW,303,0.0,0.0,81,0.00,,,0.00,weatherlink.com 1.10,2013-06-06 13:10:00,
2013-06-06 06:25:00,54.2,48.0,29.87,WNW,303,0.0,1.0,79,0.00,,,0.00,weatherlink.com 1.10,2013-06-06 13:25:00,
2013-06-06 06:40:00,55.3,48.0,29.87,WNW,303,0.0,0.0,76,0.00,,,0.00,weatherlink.com 1.10,2013-06-06 13:40:00,
2013-06-06 06:55:00,56.6,48.0,29.87,WNW,303,0.0,0.0,74,0.00,,,0.00,weatherlink.com 1.10,2013-06-06 13:55:00,
2013-06-06 07:11:00,57.8,49.0,29.88,WNW,302,0.0,0.0,73,0.00,,,0.00,weatherlink.com 1.10,2013-06-06 14:11:00,
2013-06-06 07:26:00,59.0,51.0,29.88,WNW,302,0.0,0.0,74,0.00,,,0.00,weatherlink.com 1.10,2013-06-06 14:26:00,
2013-06-06 07:41:00,60.5,51.0,29.87,WNW,288,0.0,3.0,70,0.00,,,0.00,weatherlink.com 1.10,2013-06-06 14:41:00,
2013-06-06 07:56:00,62.5,52.0,29.87,WNW,288,0.0,1.0,68,0.00,,,0.00,weatherlink.com 1.10,2013-06-06 14:56:00,
2013-06-06 08:11:00,64.0,51.0,29.87,WNW,287,1.0,1.0,62,0.00,,,0.00,weatherlink.com 1.10,2013-06-06 15:11:00,
2013-06-06 08:26:00,64.5,50.0,29.88,WNW,288,0.0,2.0,59,0.00,,,0.00,weatherlink.com 1.10,2013-06-06 15:26:00,
2013-06-06 08:41:00,65.9,51.0,29.88,West,279,0.0,4.0,59,0.00,,,0.00,weatherlink.com 1.10,2013-06-06 15:41:00,
2013-06-06 08:57:00,67.2,51.0,29.88,West,279,0.0,3.0,56,0.00,,,0.00,weatherlink.com 1.10,2013-06-06 15:57:00,
2013-06-06 09:12:00,67.9,50.0,29.88,West,279,0.0,4.0,54,0.00,,,0.00,weatherlink.com 1.10,2013-06-06 16:12:00,
2013-06-06 09:27:00,70.1,52.0,29.88,West,279,0.0,0.0,52,0.00,,,0.00,weatherlink.com 1.10,2013-06-06 16:27:00,
2013-06-06 09:42:00,71.7,53.0,29.88,West,279,0.0,0.0,52,0.00,,,0.00,weatherlink.com 1.10,2013-06-06 16:42:00,
2013-06-06 09:57:00,73.7,53.0,29.87,WNW,284,0.0,1.0,48,0.00,,,0.00,weatherlink.com 1.10,2013-06-06 16:57:00,
2013-06-06 10:12:00,73.9,53.0,29.86,WNW,296,0.0,4.0,48,0.00,,,0.00,weatherlink.com 1.10,2013-06-06 17:12:00,
2013-06-06 10:27:00,76.6,54.0,29.86,NNE,19,0.0,3.0,45,0.00,,,0.00,weatherlink.com 1.10,2013-06-06 17:27:00,
2013-06-06 10:44:00,76.3,53.0,29.86,ENE,71,0.0,4.0,45,0.00,,,0.00,weatherlink.com 1.10,2013-06-06 17:44:00,
2013-06-06 10:59:00,76.9,55.0,29.85,ENE,76,0.0,4.0,47,0.00,,,0.00,weatherlink.com 1.10,2013-06-06 17:59:00,
2013-06-06 11:14:00,78.7,54.0,29.85,ENE,78,0.0,4.0,43,0.00,,,0.00,weatherlink.com 1.10,2013-06-06 18:14:00,
2013-06-06 11:29:00,79.8,55.0,29.85,East,92,1.0,3.0,43,0.00,,,0.00,weatherlink.com 1.10,2013-06-06 18:29:00,
2013-06-06 11:44:00,81.1,53.0,29.85,ENE,72,0.0,4.0,38,0.00,,,0.00,weatherlink.com 1.10,2013-06-06 18:44:00,
2013-06-06 11:59:00,81.4,54.0,29.85,ENE,78,1.0,5.0,39,0.00,,,0.00,weatherlink.com 1.10,2013-06-06 18:59:00,
2013-06-06 12:14:00,83.4,54.0,29.84,NE,42,0.0,4.0,36,0.00,,,0.00,weatherlink.com 1.10,2013-06-06 19:14:00,
2013-06-06 12:29:00,85.5,57.0,29.84,NE,34,0.0,5.0,38,0.00,,,0.00,weatherlink.com 1.10,2013-06-06 19:29:00,
2013-06-06 12:44:00,84.8,55.0,29.83,NE,36,0.0,3.0,36,0.00,,,0.00,weatherlink.com 1.10,2013-06-06 19:44:00,
2013-06-06 12:59:00,85.8,51.0,29.83,NNE,24,2.0,6.0,30,0.00,,,0.00,weatherlink.com 1.10,2013-06-06 19:59:00,
2013-06-06 13:14:00,86.3,51.0,29.83,NNE,22,0.0,5.0,30,0.00,,,0.00,weatherlink.com 1.10,2013-06-06 20:14:00,
2013-06-06 13:30:00,86.4,52.0,29.82,NNW,338,1.0,7.0,30,0.00,,,0.00,weatherlink.com 1.10,2013-06-06 20:30:00,
2013-06-06 13:45:00,87.0,53.0,29.82,NNE,18,0.0,5.0,31,0.00,,,0.00,weatherlink.com 1.10,2013-06-06 20:45:00,
2013-06-06 14:00:00,88.3,52.0,29.81,NNE,30,2.0,5.0,29,0.00,,,0.00,weatherlink.com 1.10,2013-06-06 21:00:00,
2013-06-06 14:15:00,89.0,52.0,29.81,NNE,20,0.0,7.0,28,0.00,,,0.00,weatherlink.com 1.10,2013-06-06 21:15:00,
2013-06-06 14:30:00,88.1,51.0,29.81,NNE,14,0.0,4.0,28,0.00,,,0.00,weatherlink.com 1.10,2013-06-06 21:30:00,
2013-06-06 14:45:00,89.5,51.0,29.80,NNE,20,5.0,5.0,27,0.00,,,0.00,weatherlink.com 1.10,2013-06-06 21:45:00,
2013-06-06 15:00:00,91.5,51.0,29.80,NNE,29,0.0,5.0,25,0.00,,,0.00,weatherlink.com 1.10,2013-06-06 22:00:00,
2013-06-06 15:16:00,91.4,53.0,29.79,NE,44,3.0,7.0,27,0.00,,,0.00,weatherlink.com 1.10,2013-06-06 22:16:00,
2013-06-06 15:31:00,93.2,55.0,29.78,NE,49,1.0,7.0,27,0.00,,,0.00,weatherlink.com 1.10,2013-06-06 22:31:00,
2013-06-06 16:01:00,94.1,56.0,29.77,ENE,57,3.0,6.0,28,0.00,,,0.00,weatherlink.com 1.10,2013-06-06 23:01:00,
2013-06-06 16:16:00,95.0,54.0,29.77,NNE,21,1.0,8.0,25,0.00,,,0.00,weatherlink.com 1.10,2013-06-06 23:16:00,
2013-06-06 16:32:00,95.1,54.0,29.76,NNE,25,1.0,6.0,25,0.00,,,0.00,weatherlink.com 1.10,2013-06-06 23:32:00,
2013-06-06 16:47:00,95.2,54.0,29.76,NE,39,1.0,5.0,25,0.00,,,0.00,weatherlink.com 1.10,2013-06-06 23:47:00,
2013-06-06 17:02:00,95.2,54.0,29.75,NE,36,1.0,4.0,25,0.00,,,0.00,weatherlink.com 1.10,2013-06-07 00:02:00,
2013-06-06 17:17:00,95.5,52.0,29.75,NE,36,0.0,4.0,23,0.00,,,0.00,weatherlink.com 1.10,2013-06-07 00:17:00,
2013-06-06 17:32:00,94.7,53.0,29.75,NNE,15,2.0,8.0,24,0.00,,,0.00,weatherlink.com 1.10,2013-06-07 00:32:00,
2013-06-06 17:47:00,89.2,51.0,29.75,NW,318,11.0,14.0,27,0.00,,,0.00,weatherlink.com 1.10,2013-06-07 00:47:00,
2013-06-06 18:02:00,87.0,51.0,29.76,NNW,327,3.0,15.0,29,0.00,,,0.00,weatherlink.com 1.10,2013-06-07 01:02:00,
2013-06-06 18:17:00,86.2,52.0,29.76,NW,323,2.0,17.0,31,0.00,,,0.00,weatherlink.com 1.10,2013-06-07 01:17:00,
2013-06-06 18:34:00,84.6,52.0,29.76,NW,322,6.0,16.0,33,0.00,,,0.00,weatherlink.com 1.10,2013-06-07 01:34:00,
2013-06-06 18:48:00,83.1,51.0,29.77,NW,321,8.0,19.0,33,0.00,,,0.00,weatherlink.com 1.10,2013-06-07 01:48:00,
2013-06-06 19:04:00,81.5,48.0,29.77,NW,311,12.0,19.0,31,0.00,,,0.00,weatherlink.com 1.10,2013-06-07 02:04:00,
2013-06-06 19:18:00,80.5,47.0,29.78,NW,321,9.0,20.0,31,0.00,,,0.00,weatherlink.com 1.10,2013-06-07 02:18:00,
2013-06-06 19:33:00,79.5,46.0,29.79,NW,313,14.0,20.0,31,0.00,,,0.00,weatherlink.com 1.10,2013-06-07 02:33:00,
2013-06-06 19:48:00,77.5,46.0,29.79,NW,321,9.0,18.0,33,0.00,,,0.00,weatherlink.com 1.10,2013-06-07 02:48:00,
2013-06-06 20:04:00,75.4,47.0,29.80,NW,314,10.0,21.0,36,0.00,,,0.00,weatherlink.com 1.10,2013-06-07 03:04:00,
2013-06-06 20:19:00,74.4,46.0,29.81,NW,315,13.0,18.0,37,0.00,,,0.00,weatherlink.com 1.10,2013-06-07 03:19:00,
2013-06-06 20:34:00,73.1,46.0,29.81,NW,319,4.0,23.0,38,0.00,,,0.00,weatherlink.com 1.10,2013-06-07 03:34:00,
2013-06-06 20:49:00,72.1,44.0,29.81,NW,314,8.0,20.0,37,0.00,,,0.00,weatherlink.com 1.10,2013-06-07 03:49:00,
2013-06-06 21:04:00,71.6,45.0,29.82,NW,317,11.0,21.0,38,0.00,,,0.00,weatherlink.com 1.10,2013-06-07 04:04:00,
2013-06-06 21:19:00,71.0,45.0,29.82,NW,321,9.0,21.0,40,0.00,,,0.00,weatherlink.com 1.10,2013-06-07 04:19:00,
2013-06-06 21:34:00,70.3,45.0,29.83,NW,318,8.0,23.0,41,0.00,,,0.00,weatherlink.com 1.10,2013-06-07 04:34:00,
2013-06-06 21:49:00,69.9,45.0,29.84,NW,323,8.0,20.0,41,0.00,,,0.00,weatherlink.com 1.10,2013-06-07 04:49:00,
2013-06-06 22:04:00,69.5,46.0,29.84,NW,314,5.0,17.0,43,0.00,,,0.00,weatherlink.com 1.10,2013-06-07 05:04:00,
2013-06-06 22:19:00,69.1,46.0,29.84,NW,314,7.0,16.0,44,0.00,,,0.00,weatherlink.com 1.10,2013-06-07 05:19:00,
2013-06-06 22:35:00,68.7,46.0,29.84,NW,320,11.0,18.0,45,0.00,,,0.00,weatherlink.com 1.10,2013-06-07 05:35:00,
2013-06-06 22:50:00,68.4,48.0,29.84,NW,323,10.0,22.0,48,0.00,,,0.00,weatherlink.com 1.10,2013-06-07 05:50:00,
2013-06-06 23:05:00,67.3,48.0,29.85,NW,323,8.0,18.0,50,0.00,,,0.00,weatherlink.com 1.10,2013-06-07 06:05:00,
2013-06-06 23:20:00,66.2,49.0,29.86,NW,318,10.0,13.0,55,0.00,,,0.00,weatherlink.com 1.10,2013-06-07 06:20:00,
2013-06-06 23:35:00,66.2,49.0,29.86,NW,314,6.0,13.0,54,0.00,,,0.00,weatherlink.com 1.10,2013-06-07 06:35:00,
2013-06-06 23:50:00,65.9,49.0,29.86,NW,310,1.0,16.0,55,0.00,,,0.00,weatherlink.com 1.10,2013-06-07 06:50:00,